Thaicom 5

operational
NORAD ID: 29163 Int'l Des: 2006-020 Owner: SHIN Country: T
HEOCIRCULAR

About Thaicom 5

Description loading...

Live Position

Loading 3D Globe...

Upcoming Passes

Altitude History

Altitude vs Time

uPlot chart will show altitude changes over time

Two-Line Element Set

1 29163U 06020B 26063.18030810 -.00000076 00000-0 00000+0 0 9990
2 29163 5.7464 74.0082 0004443 194.9140 233.0200 0.99202662 72211
Epoch: Mar 4, 2026 • Age: 10 hours

Current Status

Altitude 36073.5 km
Velocity 3.06 km/s
Sub-Earth Point 2.29°N, 85.77°W
Launch Date May 27, 2006
Age 19.7 years
Type other

Technical Details

Classification Payload
Mass 2766.00 kg
Dry Mass 1220.00 kg
Total Mass 2766.00 kg
Length 3.70 m
Diameter 2.20 m
Span 26.20 m
Shape Box + 2 Pan
Manufacturer ALCAF
Bus Type Spacebus 3000A
Phase Status In Orbit
Owner/State SHIN/T

Large Constellations

Loading constellations...